Location: Castro Valley
(37.6940°N, 122.0850°W)
Time: 23:19:42
(UTC-08:00)

ISS - Visible Passes

Search period start: 20 February 2020 00:00
Search period end: 01 March 2020 00:00
Orbit: 415 x 422 km, 51.6° (Epoch: 22 February)

Date Brightness Start Highest point End Pass type
(mag) Time Alt. Az. Time Alt. Az. Time Alt. Az.
20 Feb -0.8 05:23:37 10° SSE 05:25:33 14° SE 05:27:28 10° E visible
21 Feb -3.7 06:11:01 10° SW 06:14:23 87° SE 06:17:46 10° NE visible
22 Feb -2.8 05:24:54 21° SSW 05:26:49 46° SE 05:30:04 10° ENE visible
23 Feb -1.5 04:39:52 24° ESE 04:39:52 24° ESE 04:42:09 10° ENE visible
23 Feb -2.8 06:12:56 10° W 06:16:00 32° NNW 06:19:06 10° NNE visible
24 Feb -3.5 05:27:37 43° W 05:28:17 52° NW 05:31:37 10° NE visible
25 Feb -1.9 04:42:12 29° NE 04:42:12 29° NE 04:44:00 10° NE visible
25 Feb -1.7 06:15:39 10° WNW 06:17:49 16° NNW 06:20:00 10° NNE visible
26 Feb -2.2 05:29:37 21° NW 05:29:58 22° NNW 05:32:40 10° NNE visible
27 Feb -1.4 04:43:59 19° NNE 04:43:59 19° NNE 04:45:14 10° NNE visible
28 Feb -1.4 05:31:12 12° NNW 05:31:49 12° NNW 05:33:17 10° N visible
29 Feb -1.0 04:45:24 13° N 04:45:24 13° N 04:46:04 10° NNE visible
